Regional Weather Roundup
Issued by NWS

Home | Current Version | Previous Version | Text Only | Print | Product List | Glossary Off
Versions: 1 2 3 4 5 6 7 8 9 10 11 12 13 14 15 16 17 18 19 20 21 22 23 24 25 26 27 28 29 30 31 32 33 34 35 36 37 38 39 40 41 42 43 44 45 46 47 48 49 50

000
ASUS43 KOAX 281302
RWRNE

WEATHER ROUNDUP FOR NEBRASKA
NATIONAL WEATHER SERVICE OMAHA NE
800 AM CDT TUE APR 28 2015

NOTES: SATELLITE DATA IS BEING USED TO AUGMENT CLOUD COVER ABOVE
       12000 FEET.
       "FAIR" INDICATES FEW OR NO CLOUDS BELOW 12,000 FEET WITH NO
       SIGNIFICANT WEATHER AND/OR OBSTRUCTIONS TO VISIBILITY.

  * THESE STATIONS DO NOT REPORT WEATHER SUCH AS RAIN...SNOW OR FOG.

NEZ001>004-019>022-054>056-281400-
NEBRASKA PANHANDLE

CITY           SKY/WX    TMP DP  RH WIND       PRES   REMARKS
SCOTTSBLUFF    CLOUDY    43  32  65 E5        30.36R
ALLIANCE       CLOUDY    42  40  92 CALM      30.34S
CHADRON        CLOUDY    45  42  89 CALM      30.34S
KIMBALL        CLOUDY    40  40  97 CALM      30.34R FOG
SIDNEY         CLOUDY    42  40  92 N9        30.35S
$$

NEZ057>060-069>072-079>082-281400-
SOUTHWEST NEBRASKA

CITY           SKY/WX    TMP DP  RH WIND       PRES   REMARKS
NORTH PLATTE   MOSUNNY   44  40  85 N9        30.33R
IMPERIAL       SUNNY     42  38  85 N8        30.33R
MCCOOK         PTSUNNY   45  40  82 NW9       30.31R
$$

NEZ005>010-023>029-035>040-094-281400-
NORTH CENTRAL NEBRASKA

CITY           SKY/WX    TMP DP  RH WIND       PRES   REMARKS
VALENTINE      CLOUDY    45  41  86 NW5       30.33S
AINSWORTH      PTSUNNY   45  43  91 NW12      30.32R
BROKEN BOW     SUNNY     45  41  86 N12       30.30R
O`NEILL        SUNNY     45  43  94 NW10      30.30R FOG
ORD            SUNNY     44  40  85 NW10      30.28R
$$

NEZ041-046>049-061>064-073>077-083>087-281400-
SOUTH CENTRAL NEBRASKA

CITY           SKY/WX    TMP DP  RH WIND       PRES   REMARKS
GRAND ISLAND   MOSUNNY   45  41  86 NW10      30.27R
AURORA         MOSUNNY   45  44  95 N12       30.26R FOG
HASTINGS       MOSUNNY   45  41  86 N10       30.26R
KEARNEY *      PTSUNNY   45  39  81 N14       30.28R
$$

NEZ011>018-030>034-042>045-281400-
NORTHEAST NEBRASKA

CITY           SKY/WX    TMP DP  RH WIND       PRES   REMARKS
NORFOLK        SUNNY     48  43  82 NW14      30.25R
BLAIR          SUNNY     50  35  56 NW5       30.21S
COLUMBUS *     SUNNY     46  37  71 N12       30.25S
FREMONT        SUNNY     44  38  78 NW7       30.23R
TEKAMAH        SUNNY     47  36  65 NW6       30.23R
$$

NEZ050>053-065>068-078-088>093-281400-
SOUTHEAST NEBRASKA

CITY           SKY/WX    TMP DP  RH WIND       PRES   REMARKS
LINCOLN        MOSUNNY   45  37  73 CALM      30.24R
OMAHA EPPLEY   MOSUNNY   46  39  76 N9        30.22R
FALLS CITY     MOSUNNY   46  39  76 NW6       30.20R
$$

NEZ044-045-051>053-067-281400-
OMAHA AREA

CITY           SKY/WX    TMP DP  RH WIND       PRES   REMARKS
OMAHA EPPLEY   MOSUNNY   46  39  76 N9        30.22R
BLAIR          SUNNY     50  35  56 NW5       30.21S
FREMONT        SUNNY     44  38  78 NW7       30.23R
OFFUTT AFB     SUNNY     46  41  82 NW7       30.21R
$$



USA.gov is the U.S. government's official web portal to all federal, state and local government web resources and services.